Regional Weather Roundup
Issued by NWS Jackson, KY

Home | Current Version | Previous Version | Text Only | Print | Product List | Glossary On
Versions: 1 2 3 4 5 6 7 8 9 10 11 12 13 14 15 16 17 18 19 20 21 22 23 24 25 26 27 28
000
ASUS43 KJKL 201910
RWRJKL

EAST KENTUCKY HOURLY WEATHER ROUNDUP
NATIONAL WEATHER SERVICE JACKSON KY
200 PM EST MON FEB 20 2017

NOTE: "FAIR" INDICATES FEW OR NO CLOUDS BELOW 12,000 FEET WITH
NO SIGNIFICANT WEATHER AND/OR OBSTRUCTIONS TO VISIBILITY.

* THESE REPORTS ARE NOT UNDER NWS QUALITY CONTROL AND MAY NOT
  REPORT WEATHER SUCH AS PRECIPITATION AND FOG.

KYZ079-080-083-085-087-088-110-112-115-119-120-202000
...EASTERN KENTUCKY...

CITY           SKY/WX    TMP DP  RH WIND       PRES   REMARKS
JACKSON        MOSUNNY   69  45  41 MISG      30.18F
LONDON         CLOUDY    68  41  37 CALM      30.16F
SOMERSET*      MOSUNNY   66  43  42 CALM      30.16F
MONTICELLO*    MOSUNNY   68  46  45 NW5       30.16F
MIDDLESBORO*   MOSUNNY   66  44  45 CALM      30.17F
HARLAN APT*    PTCLDY    68  36  30 CALM      30.17F
PIKE CO APT*     N/A     66  41  39 E3        30.18F
BIG SANDY APT* CLEAR     67  41  39 SE3       30.17F
MOREHEAD APT*  CLOUDY    66  46  48 CALM      30.19F
ASHLAND*       CLOUDY    41 N/A N/A CALM      30.18F
$$

KYZ035-036-041-042-044-050-067-078-099-202000
...CENTRAL KENTUCKY...

CITY           SKY/WX    TMP DP  RH WIND       PRES   REMARKS
MT STERLING*   MOSUNNY   64  45  48 S5        30.18F
FLEMING/MASON* MOSUNNY   63  51  63 CALM      30.19F
DANVILLE*      MOSUNNY   68  45  42 S6        30.15F
LEXINGTON      MOSUNNY   68  46  45 E9        30.15F
FRANKFORT      MOSUNNY   69  47  45 SE7       30.13F
LOUISVILLE     MOSUNNY   70  47  43 S8        30.13F
LEBANON*         N/A     70  45  40 E3        30.14F
GLASGOW*       PTSUNNY   71  42  35 SE5       30.13F
BOWLING GREEN  SUNNY     73  47  39 SE8       30.11F
$$

KYZ091>093-OHZ055-061-077-WVZ005-015-034-035-042-202000
...SOUTHERN OHIO/WEST VIRGINIA...

CITY           SKY/WX    TMP DP  RH WIND       PRES   REMARKS
COVINGTON      CLOUDY    59  49  69 SE10      30.16F
COLUMBUS       PTSUNNY   59  45  59 SE8       30.20F
DAYTON         PTSUNNY   62  45  53 SE10G20   30.18F
WILMINGTON     CLOUDY    61  46  57 SE8       30.18F
HUNTINGTON     MOSUNNY   61  47  59 VRB3      30.19F
CHARLESTON     CLOUDY    61  46  57 CALM      30.20F
PINEVILLE*     CLOUDY    69  14  12 MISG      30.22F
BECKLEY        CLOUDY    65  34  31 VRB3      30.20F
BLUEFIELD      CLOUDY    65  25  22 VRB5      30.20F
LOGAN CO APT*    N/A     64  43  45 CALM      30.18F
$$

VAZ002-007-008-TNZ017-027-036-066-071-202000
...SOUTHWEST VIRGINIA/EAST TENNESSEE...

CITY           SKY/WX    TMP DP  RH WIND       PRES   REMARKS
WISE*          MOSUNNY   66  25  20 CALM      30.20S
JONESVILLE*      N/A    N/A N/A N/A CALM      30.18F
ABINGDON*      SUNNY     71  31  22 CALM      30.16F
BRISTOL        CLOUDY    69  40  34 CALM      30.16F
MORRISTOWN*    CLEAR     64  46  52 N7        30.16S
SEVIERVILLE*   CLEAR     66  43  42 W6        30.15F
KNOXVILLE      CLOUDY    66  44  45 CALM      30.16F
LAFOLLETTE*    CLEAR     64  45  48 CALM      30.20F
OAK RIDGE      CLOUDY    67  44  43 CALM      30.17F
CROSSVILLE     MOSUNNY   66  42  41 VRB5      30.17F
NASHVILLE      CLOUDY    73  44  35 SE8       30.11F
$$

...KEY TO REMARKS...
VSB - VISIBILITY IN MILES
WCI - WIND CHILL INDEX
HX  - HEAT INDEX

$$




USA.gov is the U.S. government's official web portal to all federal, state and local government web resources and services.